Orbital Elements at Epoch 2459000.5 (2020-May-31.0) TDB
Reference: JPL 15 (heliocentric ecliptic J2000)
Element | Value | Uncertainty (1-sigma) | Units |
e | .1792637837334403 | 6.4763e-08 | |
a | 2.393452322549859 | 1.8465e-08 | au |
q | 1.96439300302398 | 1.507e-07 | au |
i | .977903331428591 | 7.0358e-06 | deg |
node | 204.71991078285 | 0.00026829 | deg |
peri | 188.2527757997817 | 0.00026899 | deg |
M | 77.48860867048722 | 1.5393e-05 | deg |
tp | 2458709.380725442738 (2019-Aug-13.88072544) | 5.7702e-05 | TDB |
period | 1352.494781346231 3.70 | 1.5651e-05 4.285e-08 | d yr |
n | .2661747793523219 | 3.0802e-09 | deg/d |
Q | 2.822511642075737 | 2.1775e-08 | au |
|
| | Orbit Determination Parameters
Additional Information
|